[[{"header":{"parameterUnit":"m.s-1","parameterCategory":1,"la1":30.2991,"la2":30.254,"lo1":-89.0895,"lo2":-89.0444,"dy":0.0017,"dx":0.0017,"nx":28,"ny":28,"refTime":"2024-03-24T09:00:00:Z","depth":0,"parameterNumber":2,"parameterNumberName":"U-component_of_WINDS"},"data":[0,0,0,0,0,0,0,0,0,0,0,0,0,0,0,0,0,0,0,0,0,0,0,0,0,0,0,0,0,0,0,0,0,0,0,0,0,0,0,0,0,0,0,0,0,0,0,0,0,0,0,0,0,0,0,0,0,0,-4.8853,-4.8854,0,-4.8995,-4.8996,-4.8998,-4.9014,-4.9012,-4.9011,-4.901,-4.9156,-4.9161,-4.9167,0,0,0,0,0,0,0,0,0,0,0,0,0,-4.8597,-4.8602,-4.8852,-4.8854,-4.8856,-4.8995,-4.8996,-4.8998,-4.9014,-4.9012,-4.9011,-4.9009,-4.9155,-4.9161,-4.9167,0,0,0,0,0,0,0,0,0,0,0,0,0,-4.8721,-4.8603,-4.8852,-4.8881,-4.8884,-4.8994,-4.8997,-4.8999,-4.9014,-4.9012,-4.901,-4.9008,-4.9153,-4.916,-4.9168,-4.926,0,0,-4.9192,-4.9195,0,0,0,0,0,0,0,0,-4.8713,-4.873,-4.8875,-4.8879,-4.8883,-4.8984,-4.896,-4.9086,-4.9015,-4.8965,-4.901,-4.9007,-4.9101,-4.9113,-4.9144,-4.9266,-4.9273,-4.9193,-4.9198,-4.9201,-4.9203,0,0,0,0,0,0,0,-4.8705,-4.8724,-4.8909,-4.8877,-4.8882,-4.8887,-4.8902,-4.8984,-4.9043,-4.8969,-4.8971,-4.8987,-4.9103,-4.9137,-4.9148,-4.9275,-4.9193,-4.9199,-4.9204,-4.9207,-4.948,-4.9483,0,0,0,0,0,0,-4.8691,-4.8717,-4.8904,-4.8913,-4.8791,-4.8893,-4.891,-4.8954,-4.9043,-4.9054,-4.8989,-4.8988,-4.9124,-4.9139,-4.9153,-4.9266,-4.9201,-4.9208,-4.9213,-4.9478,-4.9481,-4.9484,0,0,0,0,0,0,-4.8685,-4.8707,-4.8899,-4.8815,-4.884,-4.89,-4.8949,-4.8958,-4.8992,-4.9057,-4.9068,-4.9012,-4.9123,-4.9142,-4.9233,-4.9271,-4.9212,-4.9219,-4.9475,-4.9479,-4.9482,-4.9492,0,0,0,0,0,0,-4.8678,-4.8705,-4.874,-4.8816,-4.8844,-4.8975,-4.8952,-4.8962,-4.9005,-4.9005,-4.9082,-4.9093,-4.9123,-4.9221,-4.9241,-4.9281,-4.9225,-4.9472,-4.9477,-4.9481,-4.9489,-4.9496,-4.9502,0,0,0,0,0,-4.8669,-4.8737,-4.8742,-4.8764,-4.8889,-4.8977,-4.8994,-4.9026,-4.9008,-4.9044,-4.9086,-4.9091,-4.9265,-4.923,-4.9253,-4.9296,-4.9469,-4.9475,-4.9481,-4.9486,-4.9495,-4.9502,0,0,0,0,0,0,-4.8664,-4.8748,-4.8753,-4.8848,-4.8906,-4.898,-4.9026,-4.9035,-4.9098,-4.9095,-4.9134,-4.9151,-4.9241,-4.9278,-4.9238,-4.939,-4.9365,-4.9376,-4.9361,-4.937,-4.9377,-4.9365,-4.9232,0,0,0,0,0,-4.8674,-4.8738,-4.8808,-4.8886,-4.8914,-4.8965,-4.9005,-4.9025,-4.9086,-4.9111,-4.916,-4.9219,-4.9288,-4.9331,-4.9398,-4.9495,-4.9513,-4.9536,-4.9543,-4.9548,-4.9556,-4.9611,-4.9622,-4.9502,-4.9502,-4.9502,0,0,-4.8695,-4.8749,-4.8787,-4.8886,-4.8933,-4.8999,-4.8985,-4.9056,-4.9106,-4.9122,-4.921,-4.9249,-4.9318,-4.9412,-4.9457,-4.9446,-4.9593,-4.9555,-4.9559,-4.9564,-4.9618,-4.9629,-4.9639,-4.9506,-4.9506,-4.9505,0,0,-4.8768,-4.8815,-4.8884,-4.8932,-4.9003,-4.9037,-4.9053,-4.9127,-4.9153,-4.9243,-4.9256,-4.9317,-4.9433,-4.9482,-4.9522,-4.9616,-4.9622,-4.9637,-4.967,-4.9723,-4.9733,-4.9741,-4.9774,-4.9785,-4.9645,-4.9645,-4.9645,0,-4.8785,-4.8885,-4.8919,-4.8989,-4.9033,-4.9051,-4.9122,-4.9166,-4.9256,-4.9286,-4.9273,-4.942,-4.9468,-4.9574,-4.9597,-4.963,-4.965,-4.9626,-4.9729,-4.9737,-4.9746,-4.9777,-4.979,-4.9646,-4.9646,-4.9646,-4.9646,0,-4.8902,-4.8972,-4.9019,-4.9105,-4.9154,-4.9224,-4.927,-4.9316,-4.9333,-4.9368,-4.946,-4.9519,-4.9597,-4.9625,-4.9642,-4.9734,-4.9726,-4.9721,-4.9696,-4.9758,-4.9788,-4.9801,-4.9648,-4.9647,-4.9647,-4.9646,0,0,-4.8973,-4.9078,-4.9095,-4.9134,-4.9215,-4.9269,-4.9341,-4.9418,-4.9456,-4.9519,-4.958,-4.9679,-4.9675,-4.9721,-4.9744,-4.9791,-4.9861,-4.9781,-4.9783,-4.9792,-4.9966,-4.9968,-4.9981,-4.9867,-4.9869,-4.9871,-4.996,0,-4.9054,-4.9181,-4.9215,-4.9323,-4.9388,-4.9407,-4.947,-4.9527,-4.9563,-4.9624,-4.9664,-4.9733,-4.9723,-4.9751,-4.9798,-4.9842,-4.9896,-4.9837,-4.9924,-4.9927,-4.9904,-4.9997,-5.0,-5.008,-4.9972,-4.9974,-4.9976,0,-4.9164,-4.9228,-4.9342,-4.9415,-4.9444,-4.9499,-4.9573,-4.9631,-4.9697,-4.972,-4.9771,-4.9791,-4.9868,-4.9842,-4.9948,-4.9907,-4.9946,-4.9973,-4.9977,-4.9985,-4.9953,-5.0006,-5.0107,-5.0118,-4.9995,-4.9993,-4.9992,0,-4.9203,-4.9318,-4.9401,-4.9434,-4.9522,-4.9561,-4.9599,-4.9663,-4.9707,-4.9772,-4.9802,-4.9875,-4.9915,-4.9972,-5.0011,-4.9989,-5.0115,-5.0092,-5.0136,-5.0135,-5.016,-5.0157,-5.0266,-5.0187,-5.0187,-5.0187,-5.0187,0,-4.9288,-4.9358,-4.942,-4.9471,-4.9549,-4.9589,-4.9666,-4.9705,-4.9762,-4.9822,-4.9844,-4.99,-4.995,-5.0013,-5.0044,-5.0128,-5.0146,-5.0167,-5.0174,-5.0164,-5.0161,-5.0188,-5.0183,-5.019,-5.0189,-5.0189,-5.0188,0,-4.9344,-4.9389,-4.9481,-4.9557,-4.9577,-4.9632,-4.9697,-4.9748,-4.9786,-4.9861,-4.9881,-4.994,-5.0016,-5.0061,-5.0157,-5.0178,-5.027,-5.0276,-5.0247,-5.025,-5.0292,-5.0287,-5.042,-5.044,-5.0349,-5.035,-5.0351,0,-4.9395,-4.9448,-4.953,-4.9571,-4.961,-4.9677,-4.9722,-4.9764,-4.9811,-4.989,-4.9932,-5.0009,-5.0072,-5.0192,-5.0244,-5.0318,-5.0324,-5.0366,-5.0336,-5.0324,-5.0324,-5.0319,-5.0325,-5.0371,-5.0372,-5.0372,-5.0373,0,-4.948,-4.9499,-4.9563,-4.9636,-4.9689,-4.9748,-4.9807,-4.984,-4.9892,-4.9944,-5.0021,-5.007,-5.0168,-5.0244,-5.0323,-5.0364,-5.0377,-5.0382,-5.0396,-5.0385,-5.0366,-5.0376,-5.026,-5.0379,-5.0378,-5.0378,-5.0377,-5.0377,-4.9534,-4.9583,-4.9648,-4.9719,-4.9767,-4.9822,-4.9874,-4.9918,-4.9983,-5.0065,-5.0086,-5.0167,-5.0233,-5.034,-5.0383,-5.0448,-5.0441,-5.0461,-5.0466,-5.047,-5.0471,-5.0357,-5.0462,-5.0462,-5.0462,-5.0462,-5.0462,0,-4.9619,-4.9662,-4.9727,-4.9809,-4.9865,-4.9873,-4.9939,-4.9986,-5.0056,-5.0116,-5.0179,-5.0268,-5.0342,-5.0401,-5.0477,-5.0518,-5.0526,-5.0536,-5.0533,-5.0542,-5.0473,-5.0452,-5.0528,-5.0528,-5.0528,-5.0528,-5.0528,-5.0528,-4.967,-4.9753,-4.978,-4.9888,-4.9931,-5.0009,-5.0046,-5.0098,-5.0146,-5.0244,-5.0305,-5.0343,-5.0403,-5.0484,-5.0553,-5.0569,-5.0596,-5.0605,-5.0621,-5.0554,-5.0547,-5.054,-5.0521,-5.0611,-5.0611,-5.0685,-5.0686,-5.0687]},{"header":{"parameterUnit":"m.s-1","parameterCategory":1,"la1":30.2991,"la2":30.254,"lo1":-89.0895,"lo2":-89.0444,"dy":0.0017,"dx":0.0017,"nx":28,"ny":28,"refTime":"2024-03-24T09:00:00:Z","depth":0,"parameterNumber":3,"parameterNumberName":"V-component_of_WINDS"},"data":[0,0,0,0,0,0,0,0,0,0,0,0,0,0,0,0,0,0,0,0,0,0,0,0,0,0,0,0,0,0,0,0,0,0,0,0,0,0,0,0,0,0,0,0,0,0,0,0,0,0,0,0,0,0,0,0,0,0,4.9024,4.9024,0,4.9075,4.9076,4.9076,4.905,4.9048,4.9047,4.9045,4.9099,4.9102,4.9105,0,0,0,0,0,0,0,0,0,0,0,0,0,4.8905,4.8907,4.9024,4.9024,4.9025,4.9075,4.9076,4.9076,4.905,4.9048,4.9046,4.9045,4.9099,4.9102,4.9105,0,0,0,0,0,0,0,0,0,0,0,0,0,4.8957,4.8908,4.9024,4.9018,4.9018,4.9075,4.9076,4.9077,4.905,4.9048,4.9046,4.9044,4.9097,4.9101,4.9105,4.9172,0,0,4.9118,4.912,0,0,0,0,0,0,0,0,4.8954,4.8961,4.9018,4.9018,4.9018,4.9054,4.9054,4.9109,4.9051,4.9038,4.9045,4.9043,4.9086,4.9091,4.9105,4.9175,4.9177,4.9118,4.9121,4.9123,4.9124,0,0,0,0,0,0,0,4.895,4.8959,4.9044,4.9019,4.9019,4.9013,4.9018,4.9064,4.9073,4.9039,4.9037,4.9043,4.9086,4.9101,4.9106,4.9178,4.9118,4.9122,4.9124,4.9126,4.9306,4.9308,0,0,0,0,0,0,4.8947,4.8956,4.9042,4.9046,4.898,4.9017,4.9023,4.9044,4.9072,4.9075,4.9045,4.9042,4.9095,4.9101,4.9108,4.9189,4.9122,4.9126,4.9129,4.9304,4.9307,4.9309,0,0,0,0,0,0,4.8944,4.8954,4.904,4.9,4.9011,4.9021,4.9046,4.9047,4.9062,4.9077,4.9079,4.9059,4.9094,4.9102,4.9157,4.919,4.9128,4.9132,4.9301,4.9305,4.9308,4.935,0,0,0,0,0,0,4.8941,4.8954,4.8978,4.9001,4.9013,4.9087,4.9048,4.9049,4.9069,4.9065,4.9091,4.9093,4.9093,4.9151,4.9161,4.9195,4.9135,4.9298,4.9303,4.9307,4.9346,4.9355,4.9362,0,0,0,0,0,4.8937,4.8988,4.898,4.899,4.9044,4.9089,4.9096,4.9095,4.9072,4.9097,4.9107,4.9092,4.9185,4.9156,4.9168,4.9203,4.9296,4.9301,4.9306,4.9342,4.9353,4.9362,0,0,0,0,0,0,4.8969,4.8991,4.8982,4.9042,4.9064,4.9085,4.9117,4.9106,4.9136,4.9131,4.9128,4.9134,4.9191,4.9203,4.917,4.927,4.9237,4.9245,4.926,4.9271,4.9279,4.9275,4.9138,0,0,0,0,0,4.8984,4.9018,4.9035,4.9087,4.9098,4.9106,4.9126,4.9123,4.9146,4.9155,4.9169,4.9192,4.9227,4.9249,4.9282,4.9348,4.9353,4.9378,4.9386,4.9393,4.9399,4.9437,4.9448,4.9326,4.9326,4.9326,0,0,4.9013,4.9029,4.9051,4.9094,4.9111,4.9147,4.9114,4.9154,4.9181,4.9161,4.9213,4.9225,4.9251,4.9311,4.9339,4.9323,4.9434,4.9399,4.9405,4.9408,4.9443,4.9455,4.9465,4.933,4.9329,4.9329,0,0,4.9086,4.9102,4.9147,4.9164,4.919,4.9195,4.9206,4.9229,4.9235,4.9288,4.9274,4.9307,4.9366,4.9386,4.9404,4.9486,4.9474,4.9497,4.954,4.9576,4.9586,4.9594,4.9625,4.9635,4.9504,4.9504,4.9504,0,4.912,4.9174,4.9171,4.9213,4.9233,4.9216,4.9263,4.928,4.9316,4.933,4.9312,4.9387,4.9403,4.9469,4.9489,4.9504,4.9517,4.9494,4.9584,4.9593,4.9601,4.963,4.9641,4.9506,4.9506,4.9506,4.9505,0,4.9215,4.9253,4.9287,4.9321,4.9345,4.9389,4.9394,4.9418,4.9414,4.9421,4.9476,4.9495,4.9532,4.9547,4.9543,4.9613,4.9602,4.9584,4.9551,4.9615,4.9642,4.9653,4.951,4.9509,4.9508,4.9508,0,0,4.931,4.9343,4.9355,4.9371,4.9399,4.9429,4.9473,4.9509,4.953,4.9556,4.9593,4.9645,4.9629,4.9649,4.9647,4.9679,4.9744,4.9657,4.9658,4.9673,4.9824,4.9838,4.9851,4.9737,4.9739,4.974,4.9822,0,4.9385,4.9461,4.946,4.9531,4.9567,4.9553,4.9591,4.9613,4.9621,4.9654,4.9663,4.97,4.9675,4.9688,4.9719,4.973,4.9775,4.9724,4.9772,4.9774,4.9766,4.9865,4.9879,4.9955,4.9833,4.9835,4.9836,0,4.9483,4.9512,4.9586,4.961,4.9625,4.9659,4.9693,4.9724,4.9749,4.9753,4.9777,4.977,4.9816,4.9782,4.9846,4.9811,4.9831,4.984,4.9843,4.9848,4.9809,4.9873,4.9979,4.9991,4.9852,4.9851,4.985,0,4.9546,4.9603,4.9655,4.9669,4.9698,4.9723,4.9736,4.976,4.9782,4.9811,4.9826,4.9861,4.988,4.9908,4.9912,4.9886,4.9977,4.9942,4.9982,4.9982,5.0002,5.0,5.0114,5.0014,5.0014,5.0013,5.0013,0,4.9631,4.9677,4.9684,4.9716,4.9767,4.9767,4.9819,4.983,4.9851,4.9886,4.9876,4.991,4.9912,4.9947,4.9951,5.0004,5.0012,5.0018,5.0018,5.0019,5.0018,5.0032,5.0027,5.0016,5.0016,5.0015,5.0015,0,4.9709,4.9715,4.9771,4.9795,4.9802,4.9839,4.9859,4.9891,4.9898,4.9943,4.9953,4.9966,5.0006,5.0013,5.006,5.0063,5.0127,5.0121,5.0118,5.0118,5.0157,5.0154,5.0284,5.0301,5.0189,5.019,5.0191,0,4.9763,4.9798,4.9825,4.9848,4.9862,4.9899,4.9921,4.9923,4.9947,4.998,5.0007,5.0047,5.0078,5.0144,5.0157,5.0194,5.019,5.0233,5.0195,5.0196,5.0192,5.019,5.0194,5.024,5.0242,5.0243,5.0243,0,4.9858,4.986,4.9892,4.9927,4.9954,4.9981,5.0007,5.0026,5.0031,5.0059,5.01,5.0125,5.0174,5.0213,5.025,5.0265,5.0256,5.0255,5.0267,5.0268,5.0265,5.0268,5.0138,5.0252,5.0251,5.0251,5.025,5.025,4.9927,4.9958,4.9982,5.0019,5.0039,5.0063,5.0094,5.0106,5.014,5.018,5.0179,5.0224,5.025,5.0299,5.0316,5.0352,5.0339,5.0355,5.0359,5.0363,5.0368,5.0259,5.0359,5.0359,5.0359,5.0358,5.0358,0,5.0023,5.0038,5.0072,5.0108,5.0138,5.0126,5.0154,5.018,5.022,5.0245,5.0276,5.0324,5.0363,5.038,5.0419,5.0444,5.0441,5.0455,5.0453,5.0457,5.0377,5.0364,5.0457,5.0457,5.0457,5.0456,5.0456,5.0456,5.0076,5.0129,5.0133,5.0196,5.0211,5.0255,5.0272,5.0295,5.0315,5.0369,5.0401,5.0412,5.0434,5.0474,5.051,5.0514,5.0529,5.0545,5.0547,5.0472,5.0462,5.0453,5.044,5.0548,5.0548,5.0624,5.0625,5.0625]}]]